Regional Weather Roundup
Issued by NWS Goodland, KS

Home | Current Version | Previous Version | Graphics & Text | Print | Product List | Glossary On
Versions: 1 2 3 4 5 6 7 8 9 10 11 12 13 14 15 16 17 18 19 20 21 22 23 24 25 26 27 28 29 30 31 32 33 34 35 36 37 38 39 40 41 42 43 44 45 46 47 48 49 50
538
ASUS43 KGLD 182359
RWRGLD

GOODLAND FORECAST AREA HOURLY WEATHER ROUNDUP
NATIONAL WEATHER SERVICE GOODLAND KS
500 PM MST SUN FEB 18 2018

...OFFICIAL OBSERVATIONS...

CITY           SKY/WX    TMP DP  RH WIND       PRES   REMARKS
GOODLAND KS    MOCLDY    61  17  18 S12       29.41S
HILL CITY KS   CLOUDY    67  25  20 SE5       29.42F
IMPERIAL NEB   CLEAR     49  33  54 NE15      29.45R
MCCOOK NEB     CLEAR     55  33  43 NE9       29.42S
AKRON CO       CLEAR     62  17  17 W8        29.40S
BURLINGTON CO  MOCLDY    62  16  16 SW17      29.42F
LIMON CO       PTCLDY    61   3  10 SW12      29.45R
$$

...UNOFFICIAL OBSERVATIONS...

CITY           SKY/WX    TMP DP  RH WIND       PRES   REMARKS
LENORA KS        N/A     62  32  32 CALM        N/A
TRENTON NEB      N/A     53  32  45 E8          N/A
$$




USA.gov is the U.S. government's official web portal to all federal, state and local government web resources and services.